This is the latest recevied weather packets stored in our database for station/object N2PUI. If no packets are shown the sender has not sent any weather packets the latest 10 day(s).
| Time | Temp. | Humidity | Pressure | Rain* | Wind** | Luminosity | Snow |
|---|---|---|---|---|---|---|---|
| 1777644526 | 10.56° C | 61% | 1013.4 hPa | 0 mm | - | 707 W/m² | - |
| 1777644221 | 10° C | 63% | 1013.5 hPa | 0 mm | - | 639 W/m² | - |
| 1777643918 | 10° C | 61% | 1013.6 hPa | 0 mm | - | 269 W/m² | - |
| 1777643616 | 9.44° C | 63% | 1013.8 hPa | 0 mm | - | 714 W/m² | - |
| 1777643313 | 8.89° C | 65% | 1013.9 hPa | 0 mm | - | 242 W/m² | - |
| 1777643009 | 8.89° C | 65% | 1013.8 hPa | 0 mm | - | 667 W/m² | - |
| 1777642705 | 8.89° C | 67% | 1013.8 hPa | 0 mm | - | 365 W/m² | - |
| 1777642403 | 8.33° C | 65% | 1013.8 hPa | 0 mm | - | 592 W/m² | - |
| 1777642099 | 8.33° C | 68% | 1014 hPa | 0 mm | - | 559 W/m² | - |
| 1777641795 | 8.33° C | 69% | 1013.8 hPa | 0 mm | - | 528 W/m² | - |
| 1777641490 | 7.78° C | 70% | 1014 hPa | 0 mm | - | 475 W/m² | - |
| 1777641186 | 7.78° C | 72% | 1014 hPa | 0 mm | - | 421 W/m² | - |
| 1777640882 | 7.22° C | 77% | 1014 hPa | 0 mm | - | 407 W/m² | - |
| 1777640580 | 7.22° C | 81% | 1013.9 hPa | 0 mm | - | 77 W/m² | - |
| 1777640276 | 6.67° C | 85% | 1014 hPa | 0 mm | - | 356 W/m² | - |
| 1777639972 | 6.67° C | 88% | 1014.1 hPa | 0 mm | - | 364 W/m² | - |
| 1777639669 | 6.11° C | 90% | 1014.2 hPa | 0 mm | - | 333 W/m² | - |
| 1777639368 | 5.56° C | 91% | 1014.1 hPa | 0 mm | - | 311 W/m² | - |
| 1777639062 | 5° C | 92% | 1014.2 hPa | 0 mm | - | 257 W/m² | - |
| 1777638759 | 4.44° C | 92% | 1014.2 hPa | 0 mm | - | 286 W/m² | - |
| 1777638454 | 3.89° C | 92% | 1014.3 hPa | 0 mm | - | 247 W/m² | - |
| 1777638152 | 2.78° C | 93% | 1014.1 hPa | 0 mm | - | 67 W/m² | - |
| 1777637847 | 2.78° C | 92% | 1013.8 hPa | 0 mm | - | 230 W/m² | - |
| 1777637544 | 2.22° C | 93% | 1014 hPa | 0 mm | - | 230 W/m² | - |
| 1777637242 | 1.67° C | 92% | 1014.1 hPa | 0 mm | - | 156 W/m² | - |
* Rain latest hour (hover to see other rain measurements)
** Current wind speed in m/s (hover to see current wind gust speed)